Weather History for Montpelier, VT

Change the Weather History Date:

Wednesday, January 9, 2013

  Actual Average Record
Temperature  
Mean Temperature 25 °F 17 °F  
Max Temperature 42 °F 26 °F 53 °F (1965)
Min Temperature 7 °F 7 °F -24 °F (1968)
Degree Days  
Heating Degree Days 40 48  
Month to date heating degree days 452 430  
Since 1 July heating degree days 3415 3578  
Moisture  
Dew Point 16 °F    
Average Humidity 80    
Maximum Humidity 100    
Minimum Humidity 59    
Precipitation  
Precipitation T in 0.07 in 2.30 in (1978)
Month to date precipitation 0.09 0.65  
Year to date precipitation 0.09 0.65  
Sea Level Pressure  
Sea Level Pressure 30.23 in    
Wind  
Wind Speed 7 mph (SW)    
Max Wind Speed 25 mph    
Max Gust Speed 37 mph    
Visibility 6 miles    
Events Rain    
T = Trace of Precipitation, MM = Missing Value Source: NWS Daily Summary

Daily Weather History Graph

Daily Weather History Graph

Search for Another Location

Airport:

Trip Planner

Search our weather history database for the weather conditions in past years. The results will help you decide how hot, cold, wet, or windy it might be!

Date:

Astronomy

Jan. 09, 2013 Rise Set
Actual Time 7:24 AM EST 4:30 PM EST
Civil Twilight 6:52 AM EST 5:03 PM EST
Nautical Twilight 6:15 AM EST 5:39 PM EST
Astronomical Twilight 5:41 AM EST 6:14 PM EST
Moon 5:01 AM EST (1/9) 2:29 PM EST (1/9)
Length of Visible Light 10h 11m
Length of Day
9h 05m
Waning Crescent, 6% of the Moon is Illuminated
Jan 9
Waning Crescent
Jan 11
New
Jan 18
First Quarter
Jan 26
Full
Feb 3
Last Quarter

Hourly Weather History & Observations

Time (EST) Temp. Windchill Dew Point Humidity Pressure Visibility Wind Dir Wind Speed Gust Speed Precip Events Conditions
1:51 AM 14.0 °F - 12.9 °F 95% 30.43 in 4.0 mi Calm Calm - N/A   Clear
2:51 AM 14.0 °F - 12.9 °F 95% 30.41 in 5.0 mi Calm Calm - N/A   Clear
3:51 AM 12.0 °F 5.9 °F 10.9 °F 95% 30.41 in 5.0 mi South 3.5 mph - N/A   Clear
4:51 AM 10.9 °F - 9.0 °F 92% 30.40 in 4.0 mi Calm Calm - N/A   Clear
5:49 AM 12.2 °F - 12.2 °F 100% 30.33 in 2.0 mi Calm Calm - N/A   Clear
5:51 AM 10.9 °F - 10.9 °F 100% 30.40 in 2.0 mi Calm Calm - N/A   Clear
6:08 AM 10.4 °F - 8.6 °F 92% 30.33 in 4.0 mi Calm Calm - N/A   Clear
6:51 AM 9.0 °F - 7.0 °F 92% 30.41 in 5.0 mi Calm Calm - N/A   Clear
7:32 AM 6.8 °F - 5.0 °F 92% 30.33 in 2.5 mi Calm Calm - N/A   Clear
7:51 AM 10.0 °F - 8.1 °F 92% 30.40 in 3.0 mi Calm Calm - N/A   Clear
8:30 AM 10.4 °F - 10.4 °F 100% 30.32 in 1.2 mi Calm Calm - N/A   Partly Cloudy
8:32 AM 10.4 °F - 8.6 °F 92% 30.32 in 0.8 mi Calm Calm - N/A   Mist
8:42 AM 10.4 °F - 10.4 °F 100% 30.32 in 1.0 mi Calm Calm - N/A   Clear
8:44 AM 10.4 °F - 10.4 °F 100% 30.31 in 2.0 mi Calm Calm - N/A   Clear
8:51 AM 12.0 °F - 10.9 °F 95% 30.38 in 2.5 mi Calm Calm - N/A   Clear
9:07 AM 10.4 °F - 8.6 °F 92% 30.30 in 1.2 mi Calm Calm - N/A   Clear
9:16 AM 12.2 °F - 10.4 °F 92% 30.29 in 2.5 mi Calm Calm - N/A   Clear
9:23 AM 12.2 °F - 10.4 °F 92% 30.28 in 3.0 mi Calm Calm - N/A   Clear
9:30 AM 12.2 °F - 12.2 °F 100% 30.28 in 2.5 mi Calm Calm - N/A   Clear
9:42 AM 12.2 °F - 12.2 °F 100% 30.26 in 4.0 mi Calm Calm - N/A   Clear
9:51 AM 12.9 °F - 10.9 °F 92% 30.35 in 4.0 mi Calm Calm - N/A   Clear
10:51 AM 28.0 °F 18.1 °F 21.0 °F 75% 30.27 in 10.0 mi South 11.5 mph 16.1 mph N/A   Clear
11:51 AM 30.0 °F 19.5 °F 19.9 °F 66% 30.20 in 10.0 mi South 13.8 mph - N/A   Clear
12:51 PM 30.2 °F 23.4 °F 19.4 °F 64% 30.12 in 10.0 mi Variable 6.9 mph - N/A   Clear
1:51 PM 30.9 °F 25.2 °F 21.0 °F 67% 30.12 in 10.0 mi SSW 5.8 mph - N/A   Clear
2:51 PM 32.0 °F 23.6 °F 21.2 °F 64% 30.01 in 10.0 mi South 10.4 mph - N/A   Overcast
3:51 PM 33.1 °F 25.5 °F 21.0 °F 61% 30.02 in 10.0 mi SSW 9.2 mph - N/A   Overcast
4:51 PM 34.0 °F 28.0 °F 21.9 °F 61% 29.99 in 10.0 mi SSW 6.9 mph - N/A   Overcast
5:51 PM 39.0 °F 31.4 °F 27.0 °F 62% 29.94 in 10.0 mi SSW 12.7 mph 23.0 mph N/A   Mostly Cloudy
6:51 PM 41.0 °F 35.2 °F 28.9 °F 62% 29.96 in 10.0 mi West 9.2 mph - N/A   Mostly Cloudy
7:51 PM 41.0 °F 34.7 °F 28.0 °F 60% 29.97 in 10.0 mi West 10.4 mph 21.9 mph N/A   Overcast
8:51 PM 39.0 °F 29.0 °F 26.1 °F 60% 30.00 in 10.0 mi WNW 20.7 mph 26.5 mph 0.00 in Rain Light Rain
9:51 PM 37.9 °F 30.0 °F 25.0 °F 60% 30.01 in 10.0 mi West 12.7 mph 24.2 mph 0.00 in   Overcast
10:51 PM 37.9 °F 30.0 °F 25.0 °F 60% 30.01 in 10.0 mi WNW 12.7 mph 24.2 mph N/A   Overcast
11:51 PM 37.9 °F 29.2 °F 26.1 °F 62% 30.01 in 10.0 mi WNW 15.0 mph 26.5 mph 0.00 in   Overcast